[[{"header":{"parameterUnit":"m.s-1","parameterCategory":1,"la1":30.2991,"la2":30.254,"lo1":-89.0895,"lo2":-89.0444,"dy":0.0017,"dx":0.0017,"nx":28,"ny":28,"refTime":"2025-08-07T03:00:00:Z","depth":0,"parameterNumber":2,"parameterNumberName":"U-component_of_WINDS"},"data":[0,0,0,0,0,0,0,0,0,0,0,0,0,0,0,0,0,0,0,0,0,0,0,0,0,0,0,0,0,0,0,0,0,0,0,0,0,0,0,0,0,0,0,0,0,0,0,0,0,0,0,0,0,0,0,0,0,0,2.1146,2.1148,0,2.1255,2.1256,2.1258,2.1263,2.1262,2.126,2.1259,2.1368,2.1372,2.1376,0,0,0,0,0,0,0,0,0,0,0,0,0,2.0939,2.0943,2.1146,2.1148,2.1149,2.1255,2.1256,2.1258,2.1263,2.1262,2.126,2.1259,2.1367,2.1372,2.1377,0,0,0,0,0,0,0,0,0,0,0,0,0,2.1037,2.0944,2.1146,2.1164,2.1167,2.1255,2.1256,2.1258,2.1263,2.1262,2.126,2.1258,2.1365,2.1371,2.1377,2.1453,0,0,2.1396,2.1399,0,0,0,0,0,0,0,0,2.1031,2.1044,2.116,2.1163,2.1167,2.1244,2.1224,2.1324,2.1264,2.1227,2.1259,2.1257,2.1328,2.1337,2.1362,2.1458,2.1463,2.1397,2.14,2.1403,2.1405,0,0,0,0,0,0,0,2.1025,2.104,2.1189,2.1162,2.1166,2.1166,2.1178,2.1243,2.1287,2.123,2.1231,2.1244,2.1329,2.1356,2.1364,2.1465,2.1396,2.1402,2.1406,2.1408,2.1627,2.1629,0,0,0,0,0,0,2.1015,2.1034,2.1186,2.1193,2.1093,2.1171,2.1184,2.1221,2.1286,2.1294,2.1245,2.1243,2.1346,2.1357,2.1368,2.1461,2.1403,2.1409,2.1412,2.1625,2.1627,2.163,0,0,0,0,0,0,2.101,2.1028,2.1181,2.1114,2.1133,2.1177,2.1218,2.1224,2.125,2.1298,2.1305,2.1264,2.1345,2.136,2.1432,2.1464,2.1411,2.1417,2.1622,2.1626,2.1628,2.1646,0,0,0,0,0,0,2.1004,2.1027,2.1057,2.1114,2.1137,2.1244,2.122,2.1227,2.1261,2.126,2.1317,2.1325,2.1345,2.1423,2.1438,2.1472,2.1422,2.162,2.1624,2.1627,2.1643,2.165,2.1655,0,0,0,0,0,2.0997,2.1057,2.1058,2.1077,2.1176,2.1246,2.1259,2.1281,2.1264,2.1294,2.1324,2.1323,2.1458,2.143,2.1447,2.1484,2.1618,2.1623,2.1627,2.164,2.1648,2.1655,0,0,0,0,0,0,2.1002,2.1065,2.1067,2.1148,2.1192,2.1247,2.1286,2.1289,2.1339,2.1335,2.136,2.1373,2.1444,2.1471,2.1438,2.1559,2.1536,2.1544,2.154,2.1548,2.1554,2.1546,2.1427,0,0,0,0,0,2.1013,2.1066,2.1118,2.1184,2.1206,2.1242,2.1274,2.1287,2.1333,2.1351,2.1387,2.1431,2.1483,2.1517,2.1567,2.1646,2.1658,2.168,2.1686,2.1691,2.1698,2.1741,2.175,2.1645,2.1645,2.1645,0,0,2.1036,2.1077,2.1109,2.1186,2.1222,2.1275,2.1258,2.1315,2.1355,2.136,2.1431,2.1458,2.1508,2.1584,2.1619,2.1608,2.1729,2.1697,2.17,2.1705,2.1746,2.1756,2.1765,2.1649,2.1648,2.1648,0,0,2.1105,2.1141,2.12,2.1236,2.1289,2.1313,2.1326,2.1381,2.1399,2.1471,2.1475,2.1521,2.1611,2.1647,2.1676,2.1756,2.1757,2.1771,2.1804,2.1846,2.1854,2.1861,2.1889,2.1899,2.1778,2.1778,2.1778,0,2.1126,2.1208,2.123,2.1287,2.1321,2.1327,2.1386,2.142,2.1487,2.1509,2.1496,2.1608,2.1642,2.1726,2.1745,2.1769,2.1785,2.1766,2.1851,2.1859,2.1866,2.1893,2.1903,2.178,2.178,2.178,2.1779,0,2.1231,2.1287,2.1328,2.1393,2.1431,2.1488,2.1518,2.1554,2.1563,2.1587,2.1658,2.1699,2.1758,2.1778,2.1788,2.1863,2.1855,2.1846,2.1823,2.1877,2.1903,2.1913,2.1782,2.1781,2.1781,2.1781,0,0,2.1308,2.1383,2.1398,2.1427,2.1486,2.1529,2.1586,2.1644,2.1673,2.1718,2.1766,2.1841,2.1833,2.1867,2.188,2.1916,2.1975,2.1903,2.1904,2.1915,2.2059,2.2066,2.2078,2.1976,2.1978,2.198,2.2055,0,2.1383,2.1486,2.1507,2.1596,2.1647,2.1653,2.1703,2.1743,2.1767,2.1813,2.1838,2.189,2.1876,2.1896,2.1932,2.1961,2.2005,2.1955,2.202,2.2022,2.2008,2.2091,2.2098,2.2168,2.2065,2.2067,2.2068,0,2.1486,2.1533,2.1627,2.1678,2.17,2.1745,2.1798,2.1842,2.1888,2.1902,2.1938,2.1947,2.2005,2.1978,2.2058,2.2024,2.2051,2.2069,2.2072,2.2079,2.2049,2.2101,2.2191,2.2201,2.2084,2.2083,2.2082,0,2.1532,2.162,2.1687,2.1712,2.1772,2.1803,2.183,2.1873,2.1906,2.1952,2.1973,2.2025,2.2054,2.2094,2.2116,2.2094,2.2193,2.2169,2.2206,2.2206,2.2228,2.2226,2.2323,2.2244,2.2244,2.2244,2.2244,0,2.1614,2.1672,2.1709,2.1751,2.1814,2.1836,2.1898,2.1924,2.1962,2.2008,2.2015,2.2058,2.2084,2.213,2.2147,2.221,2.2223,2.2235,2.2239,2.2235,2.2233,2.2254,2.225,2.2247,2.2246,2.2246,2.2245,0,2.1678,2.1706,2.1779,2.183,2.1844,2.1888,2.1931,2.1971,2.1993,2.2051,2.2066,2.2101,2.2155,2.218,2.2247,2.2259,2.233,2.2331,2.2315,2.2317,2.2353,2.2349,2.2467,2.2483,2.2393,2.2394,2.2395,0,2.1729,2.1774,2.1828,2.186,2.1887,2.1937,2.197,2.1993,2.2027,2.2081,2.2113,2.2168,2.2213,2.2298,2.2329,2.238,2.2382,2.242,2.239,2.2384,2.2382,2.238,2.2384,2.2425,2.2426,2.2427,2.2428,0,2.1817,2.1828,2.1876,2.1928,2.1968,2.201,2.2051,2.2076,2.2104,2.2142,2.2197,2.2232,2.23,2.2353,2.2406,2.2432,2.2434,2.2436,2.2448,2.2444,2.2434,2.244,2.233,2.2434,2.2433,2.2433,2.2433,2.2432,2.1876,2.1915,2.196,2.2012,2.2045,2.2083,2.2123,2.215,2.2197,2.2254,2.2264,2.2322,2.2364,2.2435,2.2463,2.2508,2.2499,2.2516,2.252,2.2524,2.2526,2.2426,2.2518,2.2517,2.2517,2.2517,2.2517,0,2.1965,2.1993,2.2041,2.2098,2.2139,2.2137,2.2182,2.2217,2.2268,2.2308,2.2351,2.2414,2.2465,2.2499,2.2551,2.2581,2.2583,2.2593,2.2592,2.2598,2.2531,2.2516,2.2591,2.2591,2.2591,2.2591,2.2591,2.2591,2.2015,2.2081,2.2096,2.2178,2.2205,2.2263,2.2289,2.2323,2.2355,2.2424,2.2467,2.2489,2.2526,2.258,2.2626,2.2635,2.2654,2.2664,2.2673,2.261,2.2602,2.2595,2.2581,2.2668,2.2668,2.2736,2.2736,2.2737]},{"header":{"parameterUnit":"m.s-1","parameterCategory":1,"la1":30.2991,"la2":30.254,"lo1":-89.0895,"lo2":-89.0444,"dy":0.0017,"dx":0.0017,"nx":28,"ny":28,"refTime":"2025-08-07T03:00:00:Z","depth":0,"parameterNumber":3,"parameterNumberName":"V-component_of_WINDS"},"data":[0,0,0,0,0,0,0,0,0,0,0,0,0,0,0,0,0,0,0,0,0,0,0,0,0,0,0,0,0,0,0,0,0,0,0,0,0,0,0,0,0,0,0,0,0,0,0,0,0,0,0,0,0,0,0,0,0,0,-0.7729,-0.7729,0,-0.7711,-0.7711,-0.771,-0.7704,-0.7705,-0.7705,-0.7705,-0.7685,-0.7684,-0.7683,0,0,0,0,0,0,0,0,0,0,0,0,0,-0.7759,-0.7758,-0.7729,-0.7729,-0.7728,-0.7711,-0.771,-0.771,-0.7704,-0.7705,-0.7705,-0.7705,-0.7685,-0.7684,-0.7683,0,0,0,0,0,0,0,0,0,0,0,0,0,-0.7744,-0.7758,-0.7729,-0.7723,-0.7723,-0.7711,-0.771,-0.771,-0.7704,-0.7705,-0.7705,-0.7705,-0.7685,-0.7684,-0.7683,-0.7675,0,0,-0.768,-0.768,0,0,0,0,0,0,0,0,-0.7744,-0.7742,-0.7725,-0.7724,-0.7723,-0.771,-0.7714,-0.7698,-0.7704,-0.7711,-0.7705,-0.7705,-0.7693,-0.7691,-0.7687,-0.7674,-0.7673,-0.768,-0.768,-0.7679,-0.7679,0,0,0,0,0,0,0,-0.7745,-0.7743,-0.7722,-0.7724,-0.7723,-0.7722,-0.772,-0.7711,-0.7701,-0.7711,-0.771,-0.7708,-0.7692,-0.7688,-0.7687,-0.7673,-0.768,-0.7679,-0.7679,-0.7679,-0.7653,-0.7653,0,0,0,0,0,0,-0.7748,-0.7744,-0.7722,-0.7721,-0.7734,-0.7721,-0.7719,-0.7714,-0.7702,-0.77,-0.7708,-0.7708,-0.769,-0.7688,-0.7686,-0.7676,-0.7679,-0.7678,-0.7678,-0.7653,-0.7653,-0.7653,0,0,0,0,0,0,-0.7748,-0.7746,-0.7723,-0.7733,-0.773,-0.7721,-0.7715,-0.7714,-0.771,-0.77,-0.7698,-0.7706,-0.769,-0.7688,-0.7678,-0.7676,-0.7678,-0.7677,-0.7653,-0.7653,-0.7653,-0.7656,0,0,0,0,0,0,-0.7749,-0.7746,-0.7742,-0.7733,-0.7729,-0.7715,-0.7715,-0.7713,-0.7708,-0.7708,-0.7697,-0.7695,-0.769,-0.768,-0.7677,-0.7674,-0.7676,-0.7653,-0.7653,-0.7653,-0.7656,-0.7656,-0.7656,0,0,0,0,0,-0.775,-0.7743,-0.7742,-0.774,-0.7725,-0.7715,-0.7713,-0.7707,-0.7708,-0.7705,-0.7699,-0.7696,-0.7677,-0.7679,-0.7676,-0.7673,-0.7653,-0.7653,-0.7653,-0.7656,-0.7656,-0.7656,0,0,0,0,0,0,-0.7752,-0.7742,-0.7741,-0.773,-0.7724,-0.7714,-0.7709,-0.7707,-0.77,-0.77,-0.7693,-0.769,-0.7681,-0.7676,-0.7679,-0.7665,-0.7665,-0.7664,-0.7668,-0.7668,-0.7668,-0.7669,-0.7676,0,0,0,0,0,-0.7752,-0.7745,-0.7736,-0.7728,-0.7725,-0.7718,-0.7714,-0.771,-0.7703,-0.7699,-0.7693,-0.7685,-0.7678,-0.7673,-0.7665,-0.7656,-0.7654,-0.7652,-0.7652,-0.7652,-0.7651,-0.7647,-0.7647,-0.7652,-0.7652,-0.7652,0,0,-0.775,-0.7744,-0.774,-0.7729,-0.7723,-0.7716,-0.7715,-0.7708,-0.7703,-0.7698,-0.7689,-0.7684,-0.7675,-0.7666,-0.7662,-0.7662,-0.765,-0.7652,-0.7652,-0.7651,-0.7647,-0.7646,-0.7646,-0.7652,-0.7652,-0.7652,0,0,-0.7744,-0.7738,-0.7731,-0.7726,-0.7718,-0.7714,-0.7713,-0.7704,-0.77,-0.7691,-0.7688,-0.7682,-0.7669,-0.7663,-0.7659,-0.7653,-0.765,-0.7651,-0.765,-0.7645,-0.7645,-0.7645,-0.7643,-0.7642,-0.765,-0.765,-0.765,0,-0.7743,-0.7732,-0.7728,-0.7721,-0.7717,-0.7714,-0.7707,-0.7702,-0.7692,-0.7689,-0.7689,-0.7674,-0.7667,-0.7657,-0.7656,-0.7653,-0.7651,-0.7651,-0.7646,-0.7645,-0.7645,-0.7643,-0.7642,-0.765,-0.765,-0.765,-0.765,0,-0.7732,-0.7725,-0.772,-0.7712,-0.7707,-0.77,-0.7695,-0.769,-0.7688,-0.7684,-0.7676,-0.7669,-0.766,-0.7658,-0.7655,-0.7648,-0.7648,-0.7647,-0.7647,-0.7644,-0.7643,-0.7642,-0.765,-0.765,-0.765,-0.765,0,0,-0.7724,-0.7715,-0.7713,-0.771,-0.7702,-0.7696,-0.769,-0.7683,-0.7679,-0.7673,-0.7667,-0.7658,-0.7657,-0.7652,-0.7649,-0.7645,-0.7642,-0.7645,-0.7645,-0.7645,-0.7635,-0.7635,-0.7634,-0.7641,-0.7641,-0.764,-0.7635,0,-0.7717,-0.7705,-0.7702,-0.7693,-0.7687,-0.7685,-0.7679,-0.7674,-0.767,-0.7665,-0.7661,-0.7654,-0.7654,-0.7651,-0.7648,-0.7643,-0.764,-0.7643,-0.7635,-0.7635,-0.7637,-0.7633,-0.7633,-0.7628,-0.7635,-0.7634,-0.7634,0,-0.7706,-0.77,-0.7691,-0.7685,-0.7682,-0.7677,-0.7671,-0.7666,-0.766,-0.7658,-0.7654,-0.7651,-0.7645,-0.7646,-0.7638,-0.764,-0.7637,-0.7635,-0.7634,-0.7633,-0.7634,-0.7631,-0.7627,-0.7626,-0.7633,-0.7633,-0.7633,0,-0.7701,-0.7692,-0.7685,-0.7682,-0.7675,-0.7672,-0.7669,-0.7664,-0.766,-0.7655,-0.7652,-0.7646,-0.7642,-0.7638,-0.7634,-0.7635,-0.7626,-0.7627,-0.7624,-0.7624,-0.7621,-0.7621,-0.7616,-0.762,-0.762,-0.762,-0.762,0,-0.7693,-0.7687,-0.7683,-0.7679,-0.7672,-0.7669,-0.7663,-0.766,-0.7656,-0.7651,-0.7649,-0.7645,-0.764,-0.7635,-0.7632,-0.7626,-0.7625,-0.7623,-0.7622,-0.7623,-0.7623,-0.762,-0.762,-0.762,-0.762,-0.762,-0.762,0,-0.7686,-0.7683,-0.7676,-0.7671,-0.7669,-0.7665,-0.7661,-0.7657,-0.7654,-0.7648,-0.7647,-0.7642,-0.7637,-0.7633,-0.7625,-0.7623,-0.7617,-0.7616,-0.7619,-0.7618,-0.7616,-0.7616,-0.7608,-0.7607,-0.7612,-0.7612,-0.7612,0,-0.7681,-0.7676,-0.7671,-0.7668,-0.7666,-0.7661,-0.7657,-0.7655,-0.7651,-0.7646,-0.7643,-0.7638,-0.7633,-0.7624,-0.762,-0.7615,-0.7614,-0.7612,-0.7613,-0.7614,-0.7614,-0.7614,-0.7614,-0.7611,-0.7611,-0.7611,-0.7611,0,-0.7671,-0.767,-0.7666,-0.7661,-0.7658,-0.7654,-0.765,-0.7648,-0.7645,-0.7641,-0.7636,-0.7633,-0.7626,-0.7621,-0.7616,-0.7613,-0.7611,-0.7611,-0.761,-0.761,-0.7612,-0.7611,-0.7618,-0.7611,-0.7611,-0.7611,-0.7611,-0.7611,-0.7664,-0.7661,-0.7657,-0.7653,-0.765,-0.7647,-0.7643,-0.7641,-0.7637,-0.7632,-0.7631,-0.7625,-0.7622,-0.7615,-0.7612,-0.7608,-0.7608,-0.7606,-0.7606,-0.7606,-0.7606,-0.7613,-0.7607,-0.7607,-0.7607,-0.7607,-0.7607,0,-0.7655,-0.7653,-0.7649,-0.7644,-0.7641,-0.7642,-0.7638,-0.7635,-0.7631,-0.7627,-0.7624,-0.7618,-0.7614,-0.761,-0.7606,-0.7603,-0.7603,-0.7602,-0.7602,-0.7601,-0.7606,-0.7607,-0.7603,-0.7603,-0.7603,-0.7603,-0.7603,-0.7603,-0.7649,-0.7644,-0.7643,-0.7636,-0.7634,-0.763,-0.7628,-0.7625,-0.7623,-0.7617,-0.7614,-0.7612,-0.7609,-0.7605,-0.7601,-0.76,-0.7598,-0.7598,-0.7597,-0.7601,-0.7601,-0.7601,-0.7603,-0.7598,-0.7598,-0.7593,-0.7593,-0.7593]}]]